TimeEST,TemperatureF,Dew PointF,Humidity,Sea Level PressureIn,VisibilityMPH,Wind Direction,Wind SpeedMPH,Gust SpeedMPH,PrecipitationIn,Events,Conditions,WindDirDegrees,DateUTC
12:53 AM,34.0,24.1,67,29.91,10.0,West,17.3,25.3,N/A,,Overcast,260,2013-02-12 05:53:00
1:53 AM,34.0,23.0,64,29.92,10.0,West,12.7,-,N/A,,Overcast,270,2013-02-12 06:53:00
2:53 AM,34.0,23.0,64,29.95,10.0,West,10.4,-,N/A,,Overcast,280,2013-02-12 07:53:00
3:53 AM,33.1,21.0,61,29.96,10.0,West,21.9,26.5,N/A,,Overcast,280,2013-02-12 08:53:00
4:53 AM,33.1,21.9,64,29.98,10.0,West,12.7,-,N/A,,Overcast,270,2013-02-12 09:53:00
5:53 AM,33.1,23.0,66,30.00,10.0,West,15.0,-,N/A,,Overcast,260,2013-02-12 10:53:00
6:53 AM,33.1,23.0,66,30.01,10.0,West,13.8,-,N/A,,Overcast,270,2013-02-12 11:53:00
7:53 AM,33.1,21.9,64,30.03,10.0,West,15.0,21.9,N/A,,Overcast,260,2013-02-12 12:53:00
8:53 AM,33.1,21.9,64,30.04,10.0,West,15.0,19.6,N/A,,Overcast,270,2013-02-12 13:53:00
9:53 AM,33.1,21.9,64,30.05,10.0,West,9.2,-,N/A,,Overcast,270,2013-02-12 14:53:00
10:53 AM,33.1,21.9,64,30.06,10.0,West,12.7,-,N/A,,Overcast,260,2013-02-12 15:53:00
11:53 AM,34.0,21.9,61,30.05,10.0,WSW,15.0,-,N/A,,Overcast,250,2013-02-12 16:53:00
12:53 PM,35.1,21.9,59,30.04,10.0,WSW,12.7,-,N/A,,Overcast,240,2013-02-12 17:53:00
1:53 PM,36.0,23.0,59,29.97,10.0,WSW,11.5,-,N/A,,Overcast,250,2013-02-12 18:53:00
2:53 PM,35.1,21.9,59,29.97,10.0,WSW,12.7,-,N/A,,Overcast,240,2013-02-12 19:53:00
3:53 PM,35.1,21.9,59,29.99,10.0,WSW,15.0,-,N/A,,Overcast,240,2013-02-12 20:53:00
4:53 PM,35.1,21.0,57,29.98,10.0,West,10.4,-,N/A,,Overcast,280,2013-02-12 21:53:00
5:16 PM,35.6,21.2,56,29.98,10.0,WSW,10.4,-,N/A,,Overcast,250,2013-02-12 22:16:00
5:53 PM,34.0,21.9,61,29.99,10.0,West,8.1,-,N/A,,Overcast,260,2013-02-12 22:53:00
6:53 PM,34.0,21.0,59,29.99,10.0,West,9.2,-,N/A,,Overcast,260,2013-02-12 23:53:00
7:53 PM,33.1,21.0,61,29.98,10.0,West,12.7,-,N/A,,Overcast,280,2013-02-13 00:53:00
8:53 PM,33.1,21.0,61,29.96,10.0,WNW,9.2,-,N/A,,Mostly Cloudy,290,2013-02-13 01:53:00
9:22 PM,32.0,19.4,60,29.94,10.0,West,8.1,-,N/A,,Overcast,280,2013-02-13 02:22:00
9:53 PM,32.0,19.9,61,29.95,10.0,WNW,9.2,-,N/A,,Overcast,290,2013-02-13 02:53:00
10:53 PM,30.9,19.9,64,29.94,10.0,WNW,10.4,-,N/A,,Overcast,290,2013-02-13 03:53:00
11:53 PM,30.0,19.9,66,29.94,10.0,West,10.4,-,N/A,,Overcast,280,2013-02-13 04:53:00